This demonstration page uses our WeatherBlox Daily Observations layout. Learn more.

Left ArrowRight Arrow

Hourly Observations for May 3, 2022

Temp ( °F °C ) Dew Point ( °F °C ) Humidity (%) Winds ( mph kmh ) Pressure ( in mb ) Visibility ( mi km ) Precip ( " mm )
12:52 am 00:52 Mostly Clear 62 16.7 59 15 90 90 SSW 12 19 29.68 1005 10 16 0.00 0.00
1:44 am 01:44 Cloudy 62 16.7 59 15 90 90 S 9 15 29.67 1005 10 16 0.00 0.00
1:52 am 01:52 Cloudy 62 16.7 59 15 90 90 S 9 15 29.67 1005 10 16 0.00 0.00
2:52 am 02:52 Cloudy 62 16.7 58 14.4 86 86 S 13 20 29.67 1005 10 16 0.00 0.00
3:49 am 03:49 Cloudy 63 17 59 15 88 88 WSW 14 22 29.67 1005 9 14 0.00 0.00
3:52 am 03:52 Cloudy 62 16.7 59 15 90 90 WSW 10 17 29.67 1005 8 13 0.00 0.00
4:09 am 04:09 Cloudy 62 16.7 59 15 90 90 W 13 20 29.68 1005 10 16 0.00 0.00
4:52 am 04:52 Cloudy 57 13.9 54 12.2 90 90 W 13 20 29.72 1006 10 16 0.00 0.00
5:09 am 05:09 Cloudy 56 13.3 54 12.2 93 93 W 8 13 29.74 1007 10 16 0.00 0.00
5:52 am 05:52 Cloudy 55 12.8 53 11.7 93 93 W 17 28 29.74 1007 10 16 0.00 0.00
6:21 am 06:21 Cloudy 53 11.7 52 11.1 96 96 WNW 14 22 29.78 1009 9 14 0.00 0.00
6:52 am 06:52 Cloudy with Mist and Fog 50 10 50 10 100 100 WNW 18 30 29.81 1010 3 5 0.00 0.00
7:50 am 07:50 Cloudy with Mist and Fog 48 9 48 9 100 100 W 14 22 29.90 1012 2 3 0.00 0.00
7:52 am 07:52 Cloudy with Mist and Fog 48 8.9 47 8.3 96 96 W 12 19 29.88 1012 3 4 0.00 0.00
8:05 am 08:05 Cloudy with Mist and Fog 48 8.9 48 8.9 100 100 W 13 20 29.91 1013 3 5 0.00 0.00
8:16 am 08:16 Cloudy with Mist and Fog 48 8.9 47 8.3 96 96 W 14 22 29.92 1013 3 4 0.00 0.00
8:23 am 08:23 Cloudy with Mist and Fog 48 8.9 47 8.3 96 96 W 15 24 29.92 1013 4 6 0.00 0.00
8:38 am 08:38 Cloudy with Mist and Fog 48 8.9 46 7.8 93 93 W 12 19 29.93 1013 6 10 0.00 0.00
8:52 am 08:52 Cloudy with Mist and Fog 48 8.9 47 8.3 96 96 W 13 20 29.91 1013 4 6 0.00 0.00
9:52 am 09:52 Cloudy 48 8.9 46 7.8 93 93 W 13 20 29.94 1014 9 14 0.00 0.00
10:52 am 10:52 Cloudy 48 8.9 46 7.8 93 93 W 15 24 29.96 1015 8 13 0.00 0.00
11:52 am 11:52 Cloudy 49 9.4 46 7.8 90 90 WNW 10 17 29.99 1016 10 16 0.00 0.00
12:15 pm 12:15 Cloudy 51 10.6 46 7.8 83 83 W 13 20 30.01 1016 10 16 0.00 0.00
12:52 pm 12:52 Cloudy 52 11.1 46 7.8 80 80 WNW 14 22 29.99 1016 10 16 0.00 0.00
1:27 pm 13:27 Cloudy 53 11.7 46 7.8 77 77 W 15 24 30.01 1016 10 16 0.00 0.00
1:52 pm 13:52 Cloudy 52 11.1 45 7.2 77 77 WNW 13 20 30.00 1016 10 16 0.00 0.00
2:52 pm 14:52 Cloudy 53 11.7 46 7.8 77 77 NW 8 13 30.01 1016 10 16 0.00 0.00
3:52 pm 15:52 Cloudy 52 11.1 46 7.8 80 80 WNW 7 11 30.01 1016 10 16 0.00 0.00
4:52 pm 16:52 Cloudy 54 12.2 46 7.8 75 75 N 13 20 30.01 1016 10 16 0.00 0.00
5:52 pm 17:52 Cloudy 52 11.1 45 7.2 77 77 NNW 9 15 30.02 1017 10 16 0.00 0.00
6:52 pm 18:52 Cloudy 52 11.1 44 6.7 75 75 NNE 7 11 30.03 1017 10 16 0.00 0.00
7:52 pm 19:52 Cloudy 52 11.1 45 7.2 77 77 NNE 5 7 30.04 1017 10 16 0.00 0.00
8:52 pm 20:52 Cloudy 52 11.1 45 7.2 77 77 Calm 30.06 1018 10 16 0.00 0.00
9:52 pm 21:52 Cloudy 52 11.1 45 7.2 77 77 ENE 6 9 30.06 1018 10 16 0.00 0.00
10:52 pm 22:52 Cloudy 52 11.1 45 7.2 77 77 NE 6 9 30.08 1019 10 16 0.00 0.00
11:52 pm 23:52 Cloudy 51 10.6 45 7.2 80 80 NE 6 9 30.07 1018 10 16 0.00 0.00

Powered by AerisWeather